Laconia, NH

6:33 PM EST on February 22, 2018 (GMT -0500)
Laconia Municipal

Weather History for KLCI - December, 2012

Change the Weather History Date:

Thursday, December 27, 2012

  Actual Average Record
Temperature  
Mean Temperature 28 °F -  
Max Temperature 32 °F 29 °F 50 °F (2011)
Min Temperature 24 °F 12 °F -6 °F (1993)
Degree Days  
Heating Degree Days 37    
Moisture  
Dew Point 23 °F    
Average Humidity 81    
Maximum Humidity 86    
Minimum Humidity 69    
Precipitation  
Precipitation 0.01 in - - ()
Sea Level Pressure  
Sea Level Pressure 29.59 in    
Wind  
Wind Speed 15 mph (NE)    
Max Wind Speed 26 mph    
Max Gust Speed 41 mph    
Visibility 4 miles    
Events      
Averages and records for this station are not official NWS values.
T = Trace of Precipitation, MM = Missing Value Source: NWS Daily Summary

Daily Weather History Graph

Daily Weather History Graph

Search for Another Location

Airport or City:

Trip Planner

Search our weather history database for the weather conditions in past years. The results will help you decide how hot, cold, wet, or windy it might be!

Date:

Astronomy

Dec. 27, 2012 Rise Set
Actual Time 7:18 AM EST 4:15 PM EST
Civil Twilight 6:45 AM EST 4:48 PM EST
Nautical Twilight 6:09 AM EST 5:24 PM EST
Astronomical Twilight 5:34 AM EST 5:59 PM EST
Moon 3:57 PM EST (12/27) 6:25 AM EST (12/27)
Length of Visible Light 10h 03m
Length of Day
8h 57m
Full, 100% of the Moon is Illuminated
Dec 27
Full
Dec 28
Full
Jan 4
Last Quarter
Jan 11
New
Jan 18
First Quarter

Hourly Weather History & Observations

Time (EST) Temp. Windchill Dew Point Humidity Pressure Visibility Wind Dir Wind Speed Gust Speed Precip Events Conditions
12:15 AM 24.8 °F 13.4 °F 19.4 °F 80% 29.97 in 0.8 mi ENE 12.7 mph 17.3 mph N/A   Overcast
12:35 AM 24.8 °F 14.0 °F 19.4 °F 80% 29.95 in 0.8 mi ENE 11.5 mph 20.7 mph N/A   Overcast
12:55 AM 24.8 °F 12.9 °F 19.4 °F 80% 29.95 in 1.0 mi NE 13.8 mph 19.6 mph N/A   Overcast
1:15 AM 24.8 °F 12.9 °F 19.4 °F 80% 29.94 in 1.2 mi NE 13.8 mph 21.9 mph N/A   Overcast
1:35 AM 24.8 °F 11.9 °F 19.4 °F 80% 29.91 in 1.2 mi NE 16.1 mph 24.2 mph N/A   Overcast
1:55 AM 24.8 °F 11.9 °F 19.4 °F 80% 29.91 in 2.5 mi NE 16.1 mph 21.9 mph N/A   Overcast
2:15 AM 24.8 °F 12.4 °F 19.4 °F 80% 29.89 in 1.5 mi NE 15.0 mph 24.2 mph N/A   Overcast
2:35 AM 24.8 °F 13.4 °F 19.4 °F 80% 29.87 in 1.8 mi NE 12.7 mph 21.9 mph N/A   Overcast
2:55 AM 24.8 °F 11.9 °F 19.4 °F 80% 29.84 in 3.0 mi ENE 16.1 mph 21.9 mph N/A   Overcast
3:15 AM 24.8 °F 12.4 °F 19.4 °F 80% 29.83 in 2.5 mi NE 15.0 mph 23.0 mph N/A   Overcast
3:55 AM 24.8 °F 13.4 °F 19.4 °F 80% 29.79 in 3.0 mi NE 12.7 mph 20.7 mph N/A   Overcast
4:55 AM 26.6 °F 13.4 °F 21.2 °F 80% 29.72 in 2.5 mi ENE 18.4 mph 27.6 mph N/A   Overcast
5:15 AM 26.6 °F 13.1 °F 21.2 °F 80% 29.71 in 2.5 mi ENE 19.6 mph 27.6 mph N/A   Overcast
5:35 AM 26.6 °F 13.4 °F 21.2 °F 80% 29.69 in 3.0 mi NE 18.4 mph 28.8 mph N/A   Overcast
5:55 AM 26.6 °F 11.7 °F 21.2 °F 80% 29.68 in 1.5 mi ENE 24.2 mph 31.1 mph N/A   Overcast
6:15 AM 26.6 °F 12.7 °F 21.2 °F 80% 29.66 in 2.0 mi ENE 20.7 mph 31.1 mph N/A   Overcast
6:35 AM 26.6 °F 12.4 °F 21.2 °F 80% 29.63 in 2.5 mi NE 21.9 mph 29.9 mph N/A   Overcast
6:55 AM 26.6 °F 12.4 °F 21.2 °F 80% 29.61 in 3.0 mi ENE 21.9 mph 32.2 mph N/A   Overcast
7:15 AM 26.6 °F 11.1 °F 21.2 °F 80% 29.61 in 2.5 mi ENE 26.5 mph 33.4 mph N/A   Overcast
7:35 AM 26.6 °F 13.1 °F 23.0 °F 86% 29.59 in 0.8 mi ENE 19.6 mph 29.9 mph N/A   Overcast
7:55 AM 26.6 °F 12.4 °F 23.0 °F 86% 29.57 in 0.8 mi ENE 21.9 mph 32.2 mph N/A   Overcast
8:15 AM 28.4 °F 14.7 °F 24.8 °F 86% 29.56 in 0.8 mi ENE 21.9 mph 31.1 mph N/A   Overcast
8:35 AM 28.4 °F 14.7 °F 24.8 °F 86% 29.56 in 1.5 mi ENE 21.9 mph 35.7 mph N/A   Overcast
9:55 AM 28.4 °F 15.1 °F 24.8 °F 86% 29.55 in 0.8 mi ENE 20.7 mph 34.5 mph N/A   Overcast
10:15 AM 28.4 °F 16.2 °F 24.8 °F 86% 29.54 in 0.8 mi NE 17.3 mph 27.6 mph N/A   Overcast
10:35 AM 28.4 °F 14.4 °F 24.8 °F 86% 29.51 in 0.2 mi ENE 23.0 mph 36.8 mph N/A   Overcast
10:55 AM 28.4 °F 15.1 °F 24.8 °F 86% 29.50 in 0.5 mi NE 20.7 mph 29.9 mph N/A   Overcast
11:15 AM 30.2 °F 17.4 °F 24.8 °F 80% 29.48 in 2.0 mi ENE 20.7 mph 34.5 mph N/A   Overcast
11:35 AM 30.2 °F 17.1 °F 24.8 °F 80% 29.46 in 2.0 mi NE 21.9 mph 33.4 mph N/A   Overcast
12:15 PM 30.2 °F 15.9 °F 24.8 °F 80% 29.42 in 1.8 mi ENE 26.5 mph 41.4 mph N/A   Overcast
12:35 PM 30.2 °F 16.5 °F 24.8 °F 80% 29.42 in 1.0 mi NE 24.2 mph 36.8 mph N/A   Overcast
12:55 PM 30.2 °F 16.8 °F 24.8 °F 80% 29.41 in 2.5 mi ENE 23.0 mph 29.9 mph N/A   Overcast
1:35 PM 30.2 °F 16.5 °F 24.8 °F 80% 29.40 in 1.8 mi ENE 24.2 mph 33.4 mph N/A   Overcast
2:15 PM 30.2 °F 18.1 °F 24.8 °F 80% 29.41 in 0.8 mi NE 18.4 mph 31.1 mph N/A   Overcast
2:35 PM 30.2 °F 18.9 °F 24.8 °F 80% 29.42 in 0.5 mi NE 16.1 mph 27.6 mph N/A   Overcast
2:55 PM 30.2 °F 19.3 °F 26.6 °F 86% 29.42 in 0.5 mi NE 15.0 mph 27.6 mph N/A   Overcast
3:15 PM 30.2 °F 18.9 °F 26.6 °F 86% 29.43 in 0.5 mi NE 16.1 mph 34.5 mph N/A   Overcast
3:55 PM 30.2 °F 19.3 °F 24.8 °F 80% 29.43 in 5.0 mi NE 15.0 mph 24.2 mph 0.01 in   Overcast
4:15 PM 30.2 °F 20.2 °F 24.8 °F 80% 29.44 in 10.0 mi NE 12.7 mph 24.2 mph N/A   Overcast
4:35 PM 30.2 °F 20.2 °F 23.0 °F 75% 29.44 in 10.0 mi NE 12.7 mph 23.0 mph N/A   Overcast
4:55 PM 30.2 °F 20.2 °F 23.0 °F 75% 29.45 in 10.0 mi NNE 12.7 mph 19.6 mph N/A   Overcast
5:15 PM 32.0 °F 22.5 °F 23.0 °F 69% 29.46 in 10.0 mi NE 12.7 mph 21.9 mph N/A   Overcast
5:35 PM 30.2 °F 25.4 °F 23.0 °F 75% 29.47 in 10.0 mi North 4.6 mph 16.1 mph N/A   Overcast
5:55 PM 30.2 °F 22.6 °F 24.8 °F 80% 29.48 in 10.0 mi North 8.1 mph - N/A   Overcast
6:15 PM 30.2 °F 21.3 °F 24.8 °F 80% 29.49 in 10.0 mi North 10.4 mph - N/A   Overcast
6:35 PM 30.2 °F 21.9 °F 24.8 °F 80% 29.50 in 9.0 mi North 9.2 mph - N/A   Overcast
6:55 PM 30.2 °F 20.8 °F 24.8 °F 80% 29.51 in 3.0 mi North 11.5 mph 16.1 mph N/A   Overcast
7:15 PM 30.2 °F 21.9 °F 24.8 °F 80% 29.51 in 3.0 mi North 9.2 mph - N/A   Overcast
7:35 PM 30.2 °F 21.9 °F 24.8 °F 80% 29.52 in 3.0 mi North 9.2 mph - N/A   Overcast
7:55 PM 30.2 °F 21.9 °F 24.8 °F 80% 29.53 in 8.0 mi North 9.2 mph 17.3 mph N/A   Overcast
8:15 PM 30.2 °F 23.4 °F 26.6 °F 86% 29.54 in 6.0 mi North 6.9 mph - N/A   Overcast
8:35 PM 30.2 °F 24.3 °F 26.6 °F 86% 29.55 in 4.0 mi NNW 5.8 mph - N/A   Overcast
8:55 PM 30.2 °F 26.7 °F 26.6 °F 86% 29.55 in 2.5 mi NNW 3.5 mph - N/A   Overcast
9:55 PM 30.2 °F - 24.8 °F 80% 29.56 in 10.0 mi Calm Calm - N/A   Overcast
10:15 PM 30.2 °F - 24.8 °F 80% 29.56 in 10.0 mi Calm Calm - N/A   Overcast
10:35 PM 30.2 °F 22.6 °F 24.8 °F 80% 29.57 in 10.0 mi NW 8.1 mph - N/A   Overcast
10:55 PM 30.2 °F 26.7 °F 24.8 °F 80% 29.57 in 10.0 mi West 3.5 mph - N/A   Overcast
11:15 PM 30.2 °F 21.9 °F 23.0 °F 75% 29.57 in 10.0 mi West 9.2 mph - N/A   Overcast
11:35 PM 28.4 °F 20.4 °F 23.0 °F 80% 29.58 in 10.0 mi West 8.1 mph - N/A   Overcast
11:55 PM 28.4 °F 19.7 °F 23.0 °F 80% 29.59 in 10.0 mi West 9.2 mph - N/A   Overcast